Simultaneous Nadir Overpasses (SNOs) Predictions

Prediction of SNOs between NOAA-15 and METOP-C Satellite Orbit:

Table of predicted SNOs for the next 14.0 days since TLE Epoch: 10/17/2020
Index Date (NOAA-15) Time (NOAA-15) Lat,Lon (NOAA-15) SZA (NOAA-15 ) Date (METOP-C) Time (METOP-C) Lat,Lon (METOP-C) SZA (METOP-C ) Distance(km) Time Diff (sec)
1 10/25/2020 17:10:32 -80.94, 138.91 84.55 10/25/2020 17:09:22 -80.94, 138.77 84.59 2.51 70
2 10/25/2020 18:01:05 80.95, -53.79 95.46 10/25/2020 18:00:01 80.96, -53.66 95.46 2.35 64
3 10/25/2020 18:51:35 -80.95, 113.43 84.54 10/25/2020 18:50:44 -80.94, 113.30 84.59 2.94 51
4 10/25/2020 19:42:08 80.96, -79.26 95.47 10/25/2020 19:41:23 80.95, -79.13 95.46 2.45 45
5 10/25/2020 20:32:37 -80.95, 88.31 84.51 10/25/2020 20:32:05 -80.95, 88.19 84.53 2.16 32
6 10/25/2020 21:23:10 80.95,-104.38 95.51 10/25/2020 21:22:44 80.96,-104.24 95.52 2.61 26
7 10/25/2020 22:13:40 -80.96, 62.83 84.50 10/25/2020 22:13:27 -80.94, 62.72 84.53 2.60 13
8 10/25/2020 23:04:13 80.96,-129.86 95.52 10/25/2020 23:04:06 80.95,-129.71 95.52 2.62 7
9 10/25/2020 23:54:42 -80.95, 37.71 84.46 10/25/2020 23:54:48 -80.95, 37.61 84.47 1.80 6
10 10/26/2020 00:45:15 80.95,-154.97 95.55 10/26/2020 00:45:27 80.96,-154.82 95.58 2.87 12
11 10/26/2020 01:35:45 -80.96, 12.23 84.45 10/26/2020 01:36:10 -80.95, 12.14 84.46 2.27 25
12 10/26/2020 02:26:18 80.96, 179.55 95.56 10/26/2020 02:26:49 80.96, 179.71 95.58 2.80 31
13 10/26/2020 03:16:47 -80.96, -12.89 84.42 10/26/2020 03:17:31 -80.96, -12.97 84.41 1.46 44
14 10/26/2020 04:07:20 80.96, 154.44 95.59 10/26/2020 04:08:10 80.97, 154.60 95.64 3.13 50
15 10/26/2020 04:57:50 -80.97, -38.37 84.41 10/26/2020 04:58:53 -80.95, -38.44 84.40 1.96 63
